Zurück zum Katalog

SL-14 DEB

AktivPO
NORAD 17268·DEBRIS·🇷🇺 Russia

Gestartet Dec 18, 1986 von Plesetsk Cosmodrome

Loading…

Nächste Überflüge (nächste 24 Stunden)

TLE

AktuellSource: Space-Track

Epoche: Sep 14, 2026, 05:19 UTC

1 17268U 86101C   26257.22204961  .00000411  00000-0  27540-3 0  9995
2 17268  82.6162 177.2364 0026448 315.2350 208.5875 13.98553487 19260

Verfolge SL-14 DEB in Echtzeit mit AllMySat

Download on the App Store